Simultaneous Nadir Overpasses (SNOs) Predictions

Prediction of SNOs near equator between AQUA and NPP Satellite Orbit:

Table of predicted SNOs near equator for the next 14.0 days since TLE Epoch: 11/10/2018
Index Date (AQUA) Time (AQUA) AQUA Lat,Lon Date (NPP) Time (NPP) NPP Lat,Lon Distance(km) Time Diff (sec)
1 11/11/2018 07:52:33 -5.24, -95.02 11/11/2018 07:42:49 -5.24, -95.19 19.34 584
2 11/11/2018 08:40:49 0.73, 73.57 11/11/2018 08:32:20 0.62, 73.14 49.43 509
3 11/11/2018 09:28:56 3.82,-117.81 11/11/2018 09:21:42 3.99,-118.50 79.26 434
4 11/14/2018 00:08:35 -3.70, 21.20 11/13/2018 23:59:17 -3.62, 20.94 30.36 558
5 11/14/2018 00:56:49 -0.94,-170.19 11/14/2018 00:48:47 -1.05,-170.73 60.58 482
6 11/14/2018 01:44:57 5.43, -1.58 11/14/2018 01:38:10 5.60, -2.38 90.18 407
7 11/16/2018 15:39:22 17.17, -33.51 11/16/2018 15:29:22 17.20, -33.75 25.27 600
8 11/16/2018 16:24:34 -2.03, 137.44 11/16/2018 16:15:43 -1.96, 137.07 41.52 531
9 11/16/2018 17:12:49 -2.54, -53.97 11/16/2018 17:05:14 -2.66, -54.60 71.81 455
10 11/19/2018 07:52:27 4.94, 85.05 11/19/2018 07:42:48 4.90, 84.85 22.84 579
11 11/19/2018 08:40:35 -0.43,-106.33 11/19/2018 08:32:11 -0.35,-106.80 52.83 504
12 11/19/2018 09:28:49 -4.19, 62.27 11/19/2018 09:21:41 -4.32, 61.54 82.89 428
13 11/22/2018 00:08:27 3.30,-158.71 11/21/2018 23:59:15 3.24,-159.01 34.12 552
14 11/22/2018 00:56:35 1.22, 9.90 11/22/2018 00:48:38 1.31, 9.33 64.08 477
15 11/22/2018 01:44:49 -5.83, 178.51 11/22/2018 01:38:08 -5.98, 177.68 93.88 401




NCC Satellite Simultaneous Nadir Overpasses (SNOs) Prediction Service
